Date String (YYYY-MM-DD hh:mm:ss) UTC,Instrument flags,absolute air pressure of the measurement (hPa),sample flow rate (lpm),inlet stack bypass flow (lpm),air temperature of the measurement (°C),ambient temperature measured by the external sensor (°C),aerosol sample conditioner tube jacket temperature (°C),OPC LED temperature (°C),internal box temperature (°C),relative humidity of the measurement (%),span deviation,mass concentration of particles derived from Lorenz-Mie calculation of OPC scattering (μg/m³),mass concentration of particles derived from Lorenz-Mie calculation of OPC scattering (μg/m³),mass concentration of particles derived from Lorenz-Mie calculation of OPC scattering (μg/m³)
DateTimeUTC,F1_M11,P_M11,Q1_M11,Q2_M11,T1_M11,T2_M11,T3_M11,T4_M11,T5_M11,U1_M11,ZSPAN_M11,X0_M11,X2_M11,X1_M11
2024-02-03 11:00:00,SystemResetWarning,0813.3,5.01,000.00,023.4,022.7,000.0,031.8,025.1,23.8,0000.0,0006.99,0005.03,0004.87
2024-02-03 11:01:00,SystemResetWarning,0813.3,5.01,000.00,023.4,022.7,000.0,031.8,025.1,23.8,0000.0,0006.72,0004.95,0004.79
2024-02-03 11:02:00,SystemResetWarning,0813.4,5.01,000.00,023.4,022.7,000.0,031.8,025.1,23.8,0000.0,0006.65,0004.90,0004.72
2024-02-03 11:03:00,SystemResetWarning,0813.3,5.00,000.00,023.4,022.7,000.0,031.8,025.1,23.9,0000.0,0006.60,0004.83,0004.65
2024-02-03 11:04:00,SystemResetWarning,0813.4,5.00,000.00,023.4,022.7,000.0,031.8,025.1,23.9,0000.0,0006.42,0004.73,0004.55
2024-02-03 11:05:00,SystemResetWarning,0813.4,5.00,000.00,023.4,022.7,000.0,031.8,025.1,24.0,0000.0,0006.11,0004.58,0004.43
2024-02-03 11:06:00,SystemResetWarning,0813.4,5.00,000.00,023.4,022.7,000.0,031.8,025.1,24.7,0000.0,0005.82,0004.45,0004.30
2024-02-03 11:07:00,SystemResetWarning,0813.4,5.00,000.00,023.4,022.7,000.0,031.8,025.1,25.3,0000.0,0005.55,0004.32,0004.17
2024-02-03 11:08:00,SystemResetWarning,0813.4,5.00,000.00,023.4,022.7,000.0,031.8,025.1,24.5,0000.0,0005.41,0004.20,0004.06
2024-02-03 11:09:00,SystemResetWarning,0813.4,4.99,000.00,023.4,022.7,000.0,031.8,025.1,24.3,0000.0,0005.34,0004.09,0003.95
2024-02-03 11:10:00,SystemResetWarning,0813.4,5.00,000.00,023.4,022.7,000.0,031.8,025.1,24.3,0000.0,0005.37,0003.98,0003.84
2024-02-03 11:11:00,SystemResetWarning,0813.3,5.00,000.00,023.4,022.7,000.0,031.8,025.1,24.3,0000.0,0005.14,0003.87,0003.73
2024-02-03 11:12:00,SystemResetWarning,0813.4,5.00,000.00,023.4,022.7,000.0,031.8,025.1,24.3,0000.0,0004.99,0003.77,0003.64
2024-02-03 11:13:00,SystemResetWarning,0813.4,5.00,000.00,023.4,022.7,000.0,031.8,025.1,24.3,0000.0,0004.82,0003.70,0003.58
2024-02-03 11:14:00,SystemResetWarning,0813.4,5.00,000.00,023.4,022.7,000.0,031.8,025.1,24.3,0000.0,0004.62,0003.63,0003.53
2024-02-03 11:15:00,SystemResetWarning,0813.4,5.00,000.00,023.4,022.7,000.0,031.8,025.1,24.4,0000.0,0004.48,0003.58,0003.48
2024-02-03 11:16:00,SystemResetWarning,0813.5,5.00,000.00,023.4,022.7,000.0,031.8,025.1,24.4,0000.0,0004.51,0003.54,0003.45
2024-02-03 11:17:00,SystemResetWarning,0813.4,5.00,000.00,023.4,022.7,000.0,031.8,025.1,24.5,0000.0,0004.48,0003.52,0003.43
2024-02-03 11:18:00,SystemResetWarning,0813.4,5.00,000.00,023.4,022.7,000.0,031.8,025.1,24.5,0000.0,0004.53,0003.53,0003.44
2024-02-03 11:19:00,SystemResetWarning,0813.5,5.00,000.00,023.4,022.7,000.0,031.8,025.1,24.5,0000.0,0004.53,0003.55,0003.47
2024-02-03 11:20:00,SystemResetWarning,0813.4,5.00,000.00,023.4,022.7,000.0,031.8,025.1,24.5,0000.0,0004.48,0003.58,0003.50
2024-02-03 11:21:00,SystemResetWarning,0813.4,5.00,000.00,023.4,022.7,000.0,031.8,025.1,24.5,0000.0,0004.29,0003.62,0003.53
2024-02-03 11:22:00,SystemResetWarning,0813.4,5.00,000.00,023.4,022.7,000.0,031.8,025.1,24.5,0000.0,0004.44,0003.66,0003.56
2024-02-03 11:23:00,SystemResetWarning,0813.4,5.01,000.00,023.4,022.7,000.0,031.8,025.1,24.4,0000.0,0004.45,0003.68,0003.59
2024-02-03 11:24:00,SystemResetWarning,0813.4,5.01,000.00,023.4,022.7,000.0,031.8,025.1,24.4,0000.0,0004.50,0003.71,0003.62
2024-02-03 11:25:00,SystemResetWarning,0813.4,5.01,000.00,023.4,022.7,000.0,031.8,025.1,24.5,0000.0,0004.59,0003.75,0003.64
2024-02-03 11:26:00,SystemResetWarning,0813.4,5.00,000.00,023.4,022.7,000.0,031.8,025.1,24.5,0000.0,0004.78,0003.81,0003.69
2024-02-03 11:27:00,SystemResetWarning,0813.4,5.00,000.00,023.4,022.7,000.0,031.8,025.1,24.5,0000.0,0004.73,0003.85,0003.73
2024-02-03 11:28:00,SystemResetWarning,0813.3,5.00,000.00,023.4,022.7,000.0,031.8,025.1,24.5,0000.0,0004.81,0003.89,0003.76
2024-02-03 11:29:00,SystemResetWarning,0813.3,4.99,000.00,023.4,022.7,000.0,031.8,025.1,24.5,0000.0,0004.79,0003.91,0003.78
2024-02-03 11:30:00,SystemResetWarning,0813.3,5.00,000.00,023.4,022.7,000.0,031.8,025.0,24.6,0000.0,0004.82,0003.91,0003.78
2024-02-03 11:31:00,SystemResetWarning,0813.3,4.99,000.00,023.4,022.7,000.0,031.8,025.0,24.6,0000.0,0004.87,0003.93,0003.79
2024-02-03 11:32:00,SystemResetWarning,0813.3,5.00,000.00,023.4,022.7,000.0,031.8,025.0,24.6,0000.0,0004.88,0003.94,0003.80
2024-02-03 11:33:00,SystemResetWarning,0813.3,5.00,000.00,023.4,022.7,000.0,031.7,025.0,24.7,0000.0,0004.81,0003.94,0003.82
2024-02-03 11:34:00,SystemResetWarning,0813.3,5.00,000.00,023.4,022.6,000.0,031.7,025.0,24.7,0000.0,0004.90,0003.98,0003.85
2024-02-03 11:35:00,SystemResetWarning,0813.3,5.01,000.00,023.3,022.6,000.0,031.7,025.0,24.7,0000.0,0005.05,0004.02,0003.88
2024-02-03 11:36:00,SystemResetWarning,0813.3,5.00,000.00,023.3,022.6,000.0,031.7,025.0,24.7,0000.0,0005.12,0004.05,0003.91
2024-02-03 11:37:00,SystemResetWarning,0813.3,5.00,000.00,023.3,022.6,000.0,031.7,025.0,24.8,0000.0,0005.10,0004.06,0003.92
2024-02-03 11:38:00,SystemResetWarning,0813.3,5.00,000.00,023.3,022.6,000.0,031.7,025.0,24.8,0000.0,0005.19,0004.08,0003.93
2024-02-03 11:39:00,SystemResetWarning,0813.3,5.01,000.00,023.3,022.6,000.0,031.7,025.0,24.9,0000.0,0005.27,0004.11,0003.96
2024-02-03 11:40:00,SystemResetWarning,0813.3,5.00,000.00,023.3,022.6,000.0,031.7,025.0,24.9,0000.0,0005.32,0004.14,0003.98
2024-02-03 11:41:00,SystemResetWarning,0813.3,5.00,000.00,023.3,022.6,000.0,031.7,025.0,24.9,0000.0,0005.52,0004.20,0004.03
2024-02-03 11:42:00,SystemResetWarning,0813.3,5.01,000.00,023.3,022.6,000.0,031.7,025.0,24.9,0000.0,0005.61,0004.24,0004.07
2024-02-03 11:43:00,SystemResetWarning,0813.3,5.00,000.00,023.3,022.6,000.0,031.7,025.0,24.9,0000.0,0005.65,0004.27,0004.11
2024-02-03 11:44:00,SystemResetWarning,0813.3,5.00,000.00,023.3,022.6,000.0,031.7,024.9,24.9,0000.0,0005.71,0004.31,0004.15
2024-02-03 11:45:00,SystemResetWarning,0813.3,5.00,000.00,023.3,022.6,000.0,031.7,025.0,24.9,0000.0,0005.72,0004.33,0004.18
2024-02-03 11:46:00,SystemResetWarning,0813.3,4.99,000.00,023.3,022.6,000.0,031.7,025.0,24.9,0000.0,0005.67,0004.35,0004.22
2024-02-03 11:47:00,SystemResetWarning,0813.3,4.99,000.00,023.3,022.6,000.0,031.7,024.9,24.9,0000.0,0005.70,0004.38,0004.24
2024-02-03 11:48:00,SystemResetWarning,0813.3,5.00,000.00,023.3,022.6,000.0,031.6,024.9,24.9,0000.0,0005.77,0004.42,0004.28
2024-02-03 11:49:00,SystemResetWarning,0813.3,5.00,000.00,023.3,022.5,000.0,031.6,024.9,25.0,0000.0,0005.85,0004.46,0004.31
2024-02-03 11:50:00,SystemResetWarning,0813.3,5.00,000.00,023.3,022.5,000.0,031.6,024.9,25.0,0000.0,0005.83,0004.47,0004.34
2024-02-03 11:51:00,SystemResetWarning,0813.3,5.01,000.00,023.3,022.5,000.0,031.6,025.0,25.0,0000.0,0005.86,0004.50,0004.37
2024-02-03 11:52:00,SystemResetWarning,0813.4,5.02,000.00,023.3,022.5,000.0,031.6,024.9,25.0,0000.0,0005.72,0004.51,0004.39
2024-02-03 11:53:00,SystemResetWarning,0813.3,5.01,000.00,023.2,022.5,000.0,031.6,024.9,25.0,0000.0,0005.72,0004.55,0004.43
2024-02-03 11:54:00,SystemResetWarning,0813.3,4.99,000.00,023.2,022.5,000.0,031.6,024.9,25.1,0000.0,0005.76,0004.58,0004.45
2024-02-03 11:55:00,SystemResetWarning,0813.3,4.99,000.00,023.2,022.5,000.0,031.6,024.9,25.1,0000.0,0005.80,0004.60,0004.47
2024-02-03 11:56:00,SystemResetWarning,0813.3,4.99,000.00,023.2,022.5,000.0,031.6,024.9,25.2,0000.0,0005.87,0004.63,0004.50
2024-02-03 11:57:00,SystemResetWarning,0813.3,5.01,000.00,023.2,022.5,000.0,031.6,024.9,25.9,0000.0,0005.93,0004.65,0004.51
2024-02-03 11:58:00,SystemResetWarning,0813.3,5.01,000.00,023.2,022.5,000.0,031.6,025.0,25.7,0000.0,0006.02,0004.68,0004.53
2024-02-03 11:59:00,SystemResetWarning,0813.3,5.00,000.00,023.2,022.5,000.0,031.6,025.0,25.3,0000.0,0006.05,0004.70,0004.55
